Spokane Felts, WA
on Saturday, November 17, 2012

Saturday
Previous Day Next Day
Daily Summary
 ActualAverageRecord
Temperature
Mean Temperature °F 37°F  
Max Temperature 53°F 43°F 53°F (2007)
Min Temperature 35°F 30°F 14°F (2014)
Degree Days
Heating Degree Days 21 28  
Month to date heating degree days 390 436  
Since 1 July heating degree days 949 1173  
Cooling Degree Days 0 0  
Month to date cooling degree days 0 0  
Year to date cooling degree days 509 406  
Moisture
Dew Point 37°F   
Average Humidity 76    
Maximum Humidity 92    
Minimum Humidity 59    
Precipitation
Precipitation 0.15 in 0.07 in 0.44 in (2001)
Month to date precipitation 1.35 1.20  
Year to date precipitation 16.94 14.15  
Wind
Wind Speed 5 mph   
Max Wind Speed 26 mph   
Max Gust Speed 33 mph   
Visibility 8 miles   
Events Rain   

Key: T is trace of precipitation, MM is missing value
Source: NWS Daily Summary
Time(PST)TemperatureDew PointHumidity Pressure Visibility Wind DirectionWind SpeedGust SpeedPrecipitationEvents Conditions
12:00 AM 35.6°F 32.0°F 87% 29.93 in 3.0 miles Calm Calm - N/A   Mostly Cloudy
12:19 AM 35.6°F 32.0°F 87% 29.92 in 1.8 miles Calm Calm - N/A   Scattered Clouds
12:29 AM 35.6°F 33.8°F 93% 29.92 in 2.5 miles Calm Calm - N/A   Mostly Cloudy
12:38 AM 37.4°F 33.8°F 87% 29.92 in 1.8 miles Calm Calm - N/A   Mostly Cloudy
12:46 AM 35.6°F 33.8°F 93% 29.91 in 2.0 miles Calm Calm - N/A   Overcast
12:53 AM 35.1°F 32.0°F 89% 29.94 in 3.0 miles Calm Calm - N/A   Overcast
1:28 AM 35.6°F 33.8°F 93% 29.91 in 5.0 miles Calm Calm - N/A   Overcast
1:53 AM 36.0°F 33.1°F 89% 29.93 in 7.0 miles Calm Calm - N/A   Overcast
2:28 AM 37.4°F 33.8°F 87% 29.89 in 8.0 miles Calm Calm - N/A   Overcast
2:50 AM 39.2°F 35.6°F 87% 29.89 in 10.0 miles Calm Calm - N/A   Overcast
2:53 AM 39.0°F 35.1°F 86% 29.91 in 10.0 miles Calm Calm - N/A   Overcast
3:53 AM 39.0°F 35.1°F 86% 29.89 in 9.0 miles Calm Calm - N/A   Mostly Cloudy
4:53 AM 37.0°F 34.0°F 89% 29.88 in 5.0 miles Calm Calm - N/A   Overcast
5:53 AM 39.0°F 35.1°F 86% 29.87 in 10.0 miles Calm Calm - N/A   Overcast
6:53 AM 39.9°F 36.0°F 86% 29.85 in 10.0 miles Calm Calm - N/A   Mostly Cloudy
7:53 AM 41.0°F 36.0°F 82% 29.83 in 10.0 miles Calm Calm - N/A   Mostly Cloudy
8:53 AM 43.0°F 37.0°F 80% 29.82 in 10.0 miles Calm Calm - N/A   Overcast
9:53 AM 46.0°F 37.9°F 73% 29.79 in 10.0 miles Calm Calm - N/A   Overcast
10:53 AM 48.9°F 37.9°F 66% 29.75 in 10.0 miles ESE 8.1 mph - N/A   Overcast
11:53 AM 50.0°F 37.9°F 63% 29.71 in 10.0 miles ESE 9.2 mph - N/A   Mostly Cloudy
12:53 PM 52.0°F 37.0°F 57% 29.67 in 10.0 miles ESE 4.6 mph - N/A   Mostly Cloudy
1:53 PM 51.1°F 37.9°F 61% 29.64 in 10.0 miles SE 6.9 mph - N/A   Mostly Cloudy
2:53 PM 50.0°F 37.9°F 63% 29.63 in 10.0 miles Variable 3.5 mph - N/A   Overcast
3:53 PM 46.0°F 42.1°F 86% 29.63 in 10.0 miles NE 3.5 mph - 0.03 in Rain Light Rain
4:53 PM 46.9°F 39.9°F 77% 29.62 in 10.0 miles East 5.8 mph - 0.00 in   Overcast
5:53 PM 48.0°F 41.0°F 77% 29.61 in 10.0 miles East 8.1 mph - N/A   Overcast
6:53 PM 48.9°F 41.0°F 74% 29.58 in 10.0 miles ENE 3.5 mph - N/A   Overcast
7:53 PM 46.9°F 43.0°F 86% 29.57 in 10.0 miles NNE 4.6 mph - 0.03 in   Overcast
8:53 PM 46.9°F 43.0°F 86% 29.57 in 5.0 miles ENE 3.5 mph - 0.04 in Rain Light Rain
9:15 PM 50.0°F 42.8°F 76% 29.57 in 10.0 miles SSW 13.8 mph 20.7 mph 0.02 in Rain Light Rain
9:31 PM 48.2°F 42.8°F 82% 29.58 in 10.0 miles SW 12.7 mph 21.9 mph 0.02 in Rain Light Rain
9:51 PM 46.4°F 41.0°F 81% 29.60 in 10.0 miles SW 26.5 mph 33.4 mph 0.03 in Rain Light Rain
9:53 PM 46.0°F 39.9°F 79% 29.62 in 10.0 miles SW 25.3 mph 33.4 mph 0.03 in Rain Light Rain
10:53 PM 43.0°F 37.0°F 80% 29.67 in 9.0 miles SW 15.0 mph 23.0 mph 0.00 in Rain Light Rain
11:53 PM 42.1°F 36.0°F 79% 29.72 in 10.0 miles SW 20.7 mph 26.5 mph 0.02 in Rain Light Rain
Moon Phase
Nov. 17 Nov. 20 Nov. 28 Dec. 06 Dec. 13
Sunrise:06:58 AM (PST) Moon Rise:10:46 AM (PST)11/17
Sunset:04:09 PM (PST) Moon Set:08:26 PM (PST)11/17

Copyright © 2014 The Weather Underground, Inc.